TimeEST,TemperatureF,Dew PointF,Humidity,Sea Level PressureIn,VisibilityMPH,Wind Direction,Wind SpeedMPH,Gust SpeedMPH,PrecipitationIn,Events,Conditions,WindDirDegrees,DateUTC
12:53 AM,37.0,34.0,89,30.10,10.0,NNW,11.5,-,N/A,,Overcast,330,2012-12-09 05:53:00
1:53 AM,35.1,30.9,85,30.12,10.0,NNW,12.7,19.6,N/A,,Overcast,340,2012-12-09 06:53:00
2:53 AM,34.0,30.9,89,30.15,10.0,NNW,8.1,-,N/A,,Overcast,330,2012-12-09 07:53:00
3:19 AM,33.8,28.4,81,30.13,10.0,NNW,8.1,-,N/A,,Overcast,340,2012-12-09 08:19:00
3:53 AM,33.1,28.0,82,30.17,10.0,NNW,9.2,-,N/A,,Overcast,340,2012-12-09 08:53:00
4:53 AM,33.1,27.0,78,30.19,10.0,NNW,6.9,-,N/A,,Overcast,330,2012-12-09 09:53:00
5:00 AM,33.8,26.6,75,30.16,10.0,Calm,Calm,-,N/A,,Overcast,0,2012-12-09 10:00:00
5:53 AM,32.0,27.0,82,30.22,10.0,NW,5.8,-,N/A,,Overcast,320,2012-12-09 10:53:00
6:53 AM,32.0,27.0,82,30.22,10.0,North,9.2,-,N/A,,Overcast,10,2012-12-09 11:53:00
7:02 AM,32.0,26.6,80,30.19,10.0,North,8.1,-,N/A,,Overcast,360,2012-12-09 12:02:00
7:22 AM,32.0,26.6,80,30.20,10.0,NNE,5.8,-,N/A,,Overcast,20,2012-12-09 12:22:00
7:53 AM,32.0,26.1,79,30.23,10.0,NNE,9.2,-,N/A,,Overcast,20,2012-12-09 12:53:00
8:53 AM,32.0,26.1,79,30.25,10.0,NE,5.8,-,N/A,,Overcast,40,2012-12-09 13:53:00
9:46 AM,33.8,26.6,75,30.22,10.0,Calm,Calm,-,N/A,,Scattered Clouds,0,2012-12-09 14:46:00
9:53 AM,33.1,27.0,78,30.26,10.0,ENE,5.8,-,N/A,,Partly Cloudy,70,2012-12-09 14:53:00
10:53 AM,35.1,27.0,72,30.23,10.0,East,8.1,-,N/A,,Scattered Clouds,90,2012-12-09 15:53:00
11:53 AM,35.1,27.0,72,30.22,10.0,SE,8.1,-,N/A,,Overcast,130,2012-12-09 16:53:00
12:53 PM,36.0,27.0,70,30.19,10.0,SE,8.1,-,N/A,,Overcast,130,2012-12-09 17:53:00
1:53 PM,37.9,28.0,68,30.17,10.0,East,8.1,-,N/A,,Overcast,100,2012-12-09 18:53:00
2:53 PM,37.9,27.0,65,30.16,10.0,SE,5.8,-,N/A,,Overcast,130,2012-12-09 19:53:00
3:53 PM,37.0,28.0,70,30.15,10.0,ESE,8.1,-,N/A,,Overcast,110,2012-12-09 20:53:00
4:53 PM,37.0,28.0,70,30.13,10.0,SE,10.4,-,N/A,,Overcast,130,2012-12-09 21:53:00
5:25 PM,37.4,28.4,70,30.07,10.0,SE,8.1,-,N/A,,Overcast,130,2012-12-09 22:25:00
5:53 PM,37.9,28.9,70,30.12,10.0,SE,8.1,-,N/A,,Overcast,130,2012-12-09 22:53:00
6:53 PM,37.9,28.9,70,30.08,10.0,SE,11.5,-,N/A,,Overcast,140,2012-12-09 23:53:00
7:53 PM,37.0,30.0,76,30.06,10.0,SSE,18.4,27.6,0.00,Rain,Light Rain,150,2012-12-10 00:53:00
8:27 PM,35.6,32.0,87,30.00,8.0,SSE,17.3,24.2,0.01,Rain,Light Rain,150,2012-12-10 01:27:00
8:53 PM,35.1,33.1,92,30.03,10.0,SSE,16.1,-,0.04,Rain,Light Rain,150,2012-12-10 01:53:00
9:01 PM,35.6,33.8,93,29.97,10.0,SSE,17.3,-,0.00,Rain,Light Rain,150,2012-12-10 02:01:00
9:53 PM,36.0,34.0,93,29.99,10.0,SSE,17.3,-,0.01,Rain,Light Rain,150,2012-12-10 02:53:00
10:53 PM,37.0,35.1,93,29.95,10.0,SSE,17.3,24.2,0.01,Rain,Light Rain,160,2012-12-10 03:53:00
11:53 PM,39.0,37.0,93,29.93,10.0,SSE,12.7,20.7,0.03,,Overcast,160,2012-12-10 04:53:00